| time (UTC) | temp F | wind direction | speed MPH | gust MPH | rain 1hr in | rain 24hr in | rain mn in | humidity % | barometer mb |
| 20260904143042 | 54 | 250 | 0.0 | 2.0 | 0.00 | 0.00 | 0.00 | 64 | 1010.1 |
| 20260904141551 | 53 | 255 | 1.0 | 3.0 | 0.00 | 0.00 | 0.00 | 65 | 1010.1 |
| 20260904140046 | 51 | 0 | 0.0 | 1.0 | 0.00 | 0.00 | 0.00 | 70 | 1010.0 |
| 20260904134546 | 53 | 318 | 0.0 | 3.0 | 0.00 | 0.00 | 0.00 | 67 | 1009.9 |
| 20260904133045 | 54 | 0 | 0.0 | 3.0 | 0.00 | 0.00 | 0.00 | 60 | 1009.8 |
| 20260904131607 | 52 | 125 | 2.0 | 5.0 | 0.00 | 0.00 | 0.00 | 61 | 1009.6 |
| 20260904130048 | 51 | 96 | 1.0 | 3.0 | 0.00 | 0.00 | 0.00 | 63 | 1009.4 |
| 20260904124542 | 51 | 117 | 2.0 | 5.0 | 0.00 | 0.00 | 0.00 | 64 | 1009.1 |
| 20260904123055 | 52 | 118 | 3.0 | 5.0 | 0.00 | 0.00 | 0.00 | 62 | 1009.0 |
| 20260904121549 | 52 | 98 | 1.0 | 4.0 | 0.00 | 0.00 | 0.00 | 60 | 1009.0 |
| 20260904120050 | 53 | 110 | 2.0 | 5.0 | 0.00 | 0.00 | 0.00 | 57 | 1009.0 |
| 20260904114555 | 54 | 78 | 4.0 | 6.0 | 0.00 | 0.00 | 0.00 | 55 | 1008.9 |
| 20260904113057 | 55 | 100 | 2.0 | 5.0 | 0.00 | 0.00 | 0.00 | 53 | 1008.7 |
| 20260904111550 | 55 | 83 | 3.0 | 5.0 | 0.00 | 0.00 | 0.00 | 56 | 1008.7 |
| 20260904110047 | 56 | 130 | 3.0 | 4.0 | 0.00 | 0.00 | 0.00 | 52 | 1008.7 |
| 20260904104602 | 56 | 89 | 3.0 | 10.0 | 0.00 | 0.00 | 0.00 | 52 | 1008.8 |
| 20260904103103 | 56 | 70 | 4.0 | 9.0 | 0.00 | 0.00 | 0.00 | 53 | 1008.8 |
| 20260904101546 | 58 | 46 | 4.0 | 10.0 | 0.00 | 0.00 | 0.00 | 49 | 1008.9 |
| 20260904100049 | 57 | 123 | 1.0 | 3.0 | 0.00 | 0.00 | 0.00 | 50 | 1009.0 |
| 20260904094553 | 57 | 85 | 4.0 | 7.0 | 0.00 | 0.00 | 0.00 | 49 | 1008.8 |
| 20260904093050 | 58 | 86 | 2.0 | 3.0 | 0.00 | 0.00 | 0.00 | 48 | 1008.9 |
| 20260904091600 | 59 | 138 | 1.0 | 5.0 | 0.00 | 0.00 | 0.00 | 47 | 1009.3 |
| 20260904090045 | 59 | 35 | 4.0 | 7.0 | 0.00 | 0.00 | 0.00 | 48 | 1009.1 |
| 20260904084553 | 60 | 68 | 4.0 | 6.0 | 0.00 | 0.00 | 0.00 | 46 | 1009.3 |
| 20260904083104 | 59 | 71 | 1.0 | 2.0 | 0.00 | 0.00 | 0.00 | 49 | 1009.7 |
| 20260904081543 | 60 | 148 | 1.0 | 2.0 | 0.00 | 0.00 | 0.00 | 47 | 1009.8 |
| 20260904080042 | 62 | 30 | 0.0 | 1.0 | 0.00 | 0.00 | 0.00 | 44 | 1009.9 |
| 20260904074608 | 63 | 345 | 1.0 | 3.0 | 0.00 | 0.00 | 0.00 | 43 | 1009.9 |
| 20260904073050 | 63 | 27 | 0.0 | 2.0 | 0.00 | 0.00 | 0.00 | 46 | 1010.1 |
| 20260904071544 | 65 | 66 | 1.0 | 5.0 | 0.00 | 0.00 | 0.00 | 41 | 1010.2 |
| 20260904070042 | 63 | 61 | 1.0 | 6.0 | 0.00 | 0.00 | 0.00 | 43 | 1010.3 |
| 20260904064549 | 62 | 0 | 1.0 | 2.0 | 0.00 | 0.00 | 0.00 | 49 | 1010.3 |
| 20260904063048 | 61 | 359 | 2.0 | 4.0 | 0.00 | 0.00 | 0.00 | 52 | 1010.1 |
| 20260904061549 | 62 | 307 | 2.0 | 5.0 | 0.00 | 0.00 | 0.00 | 56 | 1009.9 |
| 20260904060053 | 65 | 94 | 2.0 | 4.0 | 0.00 | 0.00 | 0.00 | 42 | 1010.0 |
| 20260904054551 | 65 | 129 | 2.0 | 2.0 | 0.00 | 0.00 | 0.00 | 42 | 1009.9 |
| 20260904053044 | 64 | 0 | 0.0 | 2.0 | 0.00 | 0.00 | 0.00 | 45 | 1010.2 |
| 20260904051544 | 67 | 0 | 0.0 | 3.0 | 0.00 | 0.00 | 0.00 | 40 | 1010.4 |
| 20260904050053 | 67 | 108 | 4.0 | 9.0 | 0.00 | 0.00 | 0.00 | 38 | 1010.4 |
| 20260904044556 | 64 | 74 | 0.0 | 4.0 | 0.00 | 0.00 | 0.00 | 46 | 1010.3 |
| 20260904043057 | 68 | 149 | 3.0 | 6.0 | 0.00 | 0.00 | 0.00 | 35 | 1010.4 |
| 20260904041559 | 67 | 241 | 3.0 | 6.0 | 0.00 | 0.00 | 0.00 | 36 | 1010.2 |
| 20260904040057 | 66 | 245 | 3.0 | 5.0 | 0.00 | 0.00 | 0.00 | 39 | 1010.2 |
| 20260904034554 | 68 | 255 | 2.0 | 6.0 | 0.00 | 0.00 | 0.00 | 35 | 1010.5 |
| 20260904033048 | 68 | 279 | 3.0 | 5.0 | 0.00 | 0.00 | 0.00 | 36 | 1010.6 |
| 20260904031548 | 71 | 300 | 2.0 | 4.0 | 0.00 | 0.00 | 0.00 | 32 | 1010.5 |
| 20260904030052 | 71 | 250 | 3.0 | 4.0 | 0.00 | 0.00 | 0.00 | 29 | 1010.5 |
| 20260904024552 | 71 | 217 | 2.0 | 4.0 | 0.00 | 0.00 | 0.00 | 30 | 1010.6 |
| 20260904023051 | 72 | 301 | 2.0 | 6.0 | 0.00 | 0.00 | 0.00 | 30 | 1010.4 |
| 20260904021546 | 72 | 251 | 5.0 | 8.0 | 0.00 | 0.00 | 0.00 | 30 | 1010.5 |
| 20260904020054 | 72 | 254 | 3.0 | 11.0 | 0.00 | 0.00 | 0.00 | 30 | 1010.3 |
| 20260904014636 | 73 | 233 | 6.0 | 9.0 | 0.00 | 0.00 | 0.00 | 30 | 1010.2 |
| 20260904013052 | 74 | 293 | 5.0 | 10.0 | 0.00 | 0.00 | 0.00 | 29 | 1010.2 |
| 20260904011604 | 75 | 309 | 6.0 | 12.0 | 0.00 | 0.00 | 0.00 | 30 | 1010.1 |
| 20260904010100 | 77 | 289 | 3.0 | 10.0 | 0.00 | 0.00 | 0.00 | 29 | 1010.0 |
| 20260904004552 | 77 | 310 | 6.0 | 14.0 | 0.00 | 0.00 | 0.00 | 28 | 1009.8 |
| 20260904003059 | 79 | 259 | 7.0 | 13.0 | 0.00 | 0.00 | 0.00 | 26 | 1009.8 |
| 20260904001551 | 81 | 210 | 9.0 | 16.0 | 0.00 | 0.00 | 0.00 | 22 | 1009.5 |
| 20260903234546 | 80 | 233 | 3.0 | 19.0 | 0.00 | 0.00 | 0.00 | 26 | 1009.3 |
| 20260903233109 | 79 | 297 | 4.0 | 17.0 | 0.00 | 0.00 | 0.00 | 25 | 1009.3 |
| 20260903231549 | 77 | 255 | 4.0 | 12.0 | 0.00 | 0.00 | 0.00 | 27 | 1009.3 |
| 20260903230054 | 77 | 288 | 3.0 | 20.0 | 0.00 | 0.00 | 0.00 | 27 | 1009.2 |
| 20260903224544 | 77 | 251 | 5.0 | 14.0 | 0.00 | 0.00 | 0.00 | 28 | 1009.2 |
| 20260903223046 | 77 | 288 | 4.0 | 7.0 | 0.00 | 0.00 | 0.00 | 31 | 1009.4 |
| 20260903221551 | 75 | 302 | 4.0 | 13.0 | 0.00 | 0.00 | 0.00 | 31 | 1009.4 |
| 20260903220114 | 75 | 302 | 3.0 | 7.0 | 0.00 | 0.00 | 0.00 | 34 | 1009.3 |
| 20260903214541 | 76 | 257 | 3.0 | 13.0 | 0.00 | 0.00 | 0.00 | 30 | 1009.4 |
| 20260903213051 | 76 | 324 | 4.0 | 10.0 | 0.00 | 0.00 | 0.00 | 29 | 1009.4 |
| 20260903211553 | 75 | 265 | 5.0 | 13.0 | 0.00 | 0.00 | 0.00 | 33 | 1009.5 |
| 20260903210049 | 75 | 244 | 5.0 | 9.0 | 0.00 | 0.00 | 0.00 | 33 | 1009.6 |
| 20260903204553 | 74 | 250 | 6.0 | 12.0 | 0.00 | 0.00 | 0.00 | 33 | 1009.7 |
| 20260903203104 | 74 | 288 | 5.0 | 12.0 | 0.00 | 0.00 | 0.00 | 35 | 1009.8 |
| 20260903201550 | 74 | 228 | 8.0 | 18.0 | 0.00 | 0.00 | 0.00 | 32 | 1009.7 |
| 20260903200047 | 73 | 322 | 7.0 | 17.0 | 0.00 | 0.00 | 0.00 | 31 | 1009.7 |
| 20260903194557 | 73 | 305 | 8.0 | 23.0 | 0.00 | 0.00 | 0.00 | 33 | 1009.7 |
| 20260903193052 | 73 | 287 | 7.0 | 18.0 | 0.00 | 0.00 | 0.00 | 32 | 1009.9 |
| 20260903191551 | 74 | 255 | 9.0 | 22.0 | 0.00 | 0.00 | 0.00 | 31 | 1010.1 |
| 20260903190044 | 73 | 339 | 14.0 | 25.0 | 0.00 | 0.00 | 0.00 | 31 | 1010.1 |
| 20260903184552 | 73 | 285 | 10.0 | 22.0 | 0.00 | 0.00 | 0.00 | 33 | 1010.2 |
| 20260903183050 | 72 | 305 | 17.0 | 23.0 | 0.00 | 0.00 | 0.00 | 33 | 1010.3 |
| 20260903181543 | 72 | 269 | 12.0 | 21.0 | 0.00 | 0.00 | 0.00 | 33 | 1010.4 |
| 20260903180048 | 72 | 299 | 8.0 | 23.0 | 0.00 | 0.00 | 0.00 | 34 | 1010.6 |
| 20260903174550 | 71 | 274 | 8.0 | 21.0 | 0.00 | 0.00 | 0.00 | 33 | 1010.6 |
| 20260903173048 | 70 | 306 | 10.0 | 19.0 | 0.00 | 0.00 | 0.00 | 35 | 1010.9 |
| 20260903171549 | 70 | 319 | 11.0 | 18.0 | 0.00 | 0.00 | 0.00 | 34 | 1011.3 |
| 20260903170054 | 69 | 293 | 9.0 | 18.0 | 0.00 | 0.00 | 0.00 | 34 | 1011.1 |
| 20260903164549 | 69 | 211 | 8.0 | 25.0 | 0.00 | 0.00 | 0.00 | 36 | 1011.0 |
| 20260903163043 | 68 | 315 | 9.0 | 17.0 | 0.00 | 0.00 | 0.00 | 35 | 1011.1 |
| 20260903161557 | 68 | 267 | 8.0 | 18.0 | 0.00 | 0.00 | 0.00 | 35 | 1011.1 |
| 20260903160051 | 67 | 252 | 10.0 | 18.0 | 0.00 | 0.00 | 0.00 | 36 | 1011.1 |
| 20260903154551 | 67 | 311 | 7.0 | 17.0 | 0.00 | 0.00 | 0.00 | 38 | 1011.3 |
| 20260903153047 | 66 | 337 | 7.0 | 17.0 | 0.00 | 0.00 | 0.00 | 38 | 1011.4 |
| 20260903151549 | 65 | 283 | 8.0 | 15.0 | 0.00 | 0.00 | 0.00 | 39 | 1011.6 |
| 20260903150104 | 65 | 293 | 8.0 | 15.0 | 0.00 | 0.00 | 0.00 | 40 | 1011.5 |
| 20260903144546 | 64 | 245 | 7.0 | 14.0 | 0.00 | 0.00 | 0.00 | 41 | 1011.6 |